Weather History for Daytona Beach, FL

Change the Weather History Date:

Sunday, September 30, 2012

  Actual Average Record
Temperature  
Mean Temperature 81 °F 78 °F  
Max Temperature 89 °F 85 °F 93 °F (1980)
Min Temperature 72 °F 70 °F 60 °F (1983)
Degree Days  
Heating Degree Days 0 0  
Month to date heating degree days 0 0  
Since 1 July heating degree days 0 0  
Cooling Degree Days 16 13  
Month to date cooling degree days 450 436  
Year to date cooling degree days 2777 2510  
Growing Degree Days 30 (Base 50)    
Moisture  
Dew Point 73 °F    
Average Humidity 80    
Maximum Humidity 100    
Minimum Humidity 59    
Precipitation  
Precipitation 1.33 in 0.21 in 4.40 in (1937)
Month to date precipitation 3.39 6.96  
Year to date precipitation 32.62 40.09  
Sea Level Pressure  
Sea Level Pressure 29.85 in    
Wind  
Wind Speed 4 mph (SSE)    
Max Wind Speed 20 mph    
Max Gust Speed 22 mph    
Visibility 9 miles    
Events Rain , Thunderstorm    
T = Trace of Precipitation, MM = Missing Value Source: NWS Daily Summary

Daily Weather History Graph

Daily Weather History Graph

Search for Another Location

Airport:

Trip Planner

Search our weather history database for the weather conditions in past years. The results will help you decide how hot, cold, wet, or windy it might be!

Date:

Astronomy

Sep. 30, 2012 Rise Set
Actual Time 7:17 AM EDT 7:10 PM EDT
Civil Twilight 6:53 AM EDT 7:34 PM EDT
Nautical Twilight 6:25 AM EDT 8:01 PM EDT
Astronomical Twilight 5:58 AM EDT 8:29 PM EDT
Moon 7:21 PM EDT (9/30) 7:40 AM EDT (9/30)
Length of Visible Light 12h 40m
Length of Day
11h 53m
Full, 100% of the Moon is Illuminated
Sep 30
Full
Oct 8
Last Quarter
Oct 15
New
Oct 21
First Quarter
Oct 29
Full

Hourly Weather History & Observations

Time (EDT) Temp. Heat Index Dew Point Humidity Pressure Visibility Wind Dir Wind Speed Gust Speed Precip Events Conditions
12:53 AM 73.9 °F - 73.0 °F 97% 29.91 in 10.0 mi Calm Calm - N/A   Overcast
1:53 AM 73.9 °F - 73.0 °F 97% 29.91 in 10.0 mi Calm Calm - N/A   Overcast
2:53 AM 73.9 °F - 73.0 °F 97% 29.89 in 10.0 mi Calm Calm - N/A   Overcast
3:53 AM 73.9 °F - 73.0 °F 97% 29.88 in 10.0 mi Calm Calm - N/A   Overcast
4:53 AM 73.0 °F - 72.0 °F 96% 29.87 in 10.0 mi Calm Calm - N/A   Overcast
5:53 AM 72.0 °F - 71.1 °F 97% 29.86 in 8.0 mi Calm Calm - N/A   Mostly Cloudy
6:53 AM 72.0 °F - 71.1 °F 97% 29.87 in 9.0 mi Calm Calm - N/A   Mostly Cloudy
7:53 AM 72.0 °F - 72.0 °F 100% 29.88 in 7.0 mi Calm Calm - N/A   Overcast
8:53 AM 75.9 °F - 73.0 °F 91% 29.89 in 10.0 mi South 3.5 mph - N/A   Mostly Cloudy
9:53 AM 80.1 °F 84.2 °F 73.0 °F 79% 29.89 in 10.0 mi SSE 3.5 mph - N/A   Mostly Cloudy
10:53 AM 82.9 °F 88.8 °F 73.0 °F 72% 29.89 in 10.0 mi SSE 4.6 mph - N/A   Mostly Cloudy
11:53 AM 84.9 °F 90.7 °F 72.0 °F 65% 29.88 in 10.0 mi Calm Calm - N/A   Mostly Cloudy
12:53 PM 87.1 °F 93.6 °F 72.0 °F 61% 29.87 in 10.0 mi SE 6.9 mph - N/A   Mostly Cloudy
1:53 PM 86.0 °F 95.1 °F 75.0 °F 70% 29.85 in 10.0 mi Variable 3.5 mph - N/A   Mostly Cloudy
2:05 PM 86.0 °F 95.1 °F 75.2 °F 70% 29.85 in 10.0 mi East 6.9 mph - N/A   Mostly Cloudy
2:31 PM 86.0 °F 95.1 °F 75.2 °F 70% 29.84 in 10.0 mi East 5.8 mph - N/A   Mostly Cloudy
2:53 PM 88.0 °F 93.8 °F 71.1 °F 57% 29.83 in 10.0 mi South 10.4 mph - N/A   Mostly Cloudy
3:53 PM 86.0 °F 96.0 °F 75.9 °F 72% 29.81 in 10.0 mi East 9.2 mph 17.3 mph N/A   Mostly Cloudy
4:53 PM 84.9 °F 93.3 °F 75.0 °F 72% 29.79 in 10.0 mi Variable 5.8 mph - N/A   Mostly Cloudy
5:53 PM 84.0 °F 91.9 °F 75.0 °F 74% 29.79 in 10.0 mi Variable 5.8 mph - N/A   Mostly Cloudy
6:53 PM 82.0 °F 88.6 °F 75.0 °F 79% 29.79 in 10.0 mi SE 4.6 mph - N/A   Mostly Cloudy
7:53 PM 81.0 °F 86.7 °F 75.0 °F 82% 29.80 in 10.0 mi SSE 4.6 mph - N/A   Mostly Cloudy
8:53 PM 81.0 °F 86.7 °F 75.0 °F 82% 29.81 in 10.0 mi SE 5.8 mph - N/A   Mostly Cloudy
9:04 PM 80.6 °F 85.4 °F 73.4 °F 79% 29.81 in 10.0 mi SSE 10.4 mph - N/A Thunderstorm Thunderstorm
9:53 PM 80.1 °F 84.5 °F 73.9 °F 81% 29.84 in 10.0 mi WNW 8.1 mph - N/A Thunderstorm Thunderstorm
10:22 PM 77.0 °F - 75.2 °F 94% 29.86 in 5.0 mi West 15.0 mph 21.9 mph 0.06 in Rain , Thunderstorm Thunderstorms and Rain
10:53 PM 75.0 °F - 73.9 °F 96% 29.87 in 1.0 mi South 12.7 mph 20.7 mph 1.11 in Rain , Thunderstorm Thunderstorms and Rain
11:16 PM 73.4 °F - 71.6 °F 94% 29.85 in 6.0 mi ESE 4.6 mph - 0.22 in Rain , Thunderstorm Light Thunderstorms and Rain
11:49 PM 75.2 °F - 73.4 °F 94% 29.85 in 10.0 mi Calm Calm - 0.22 in   Mostly Cloudy
11:53 PM 75.0 °F - 73.0 °F 94% 29.85 in 10.0 mi Calm Calm - 0.22 in   Mostly Cloudy